Time,TemperatureF,DewpointF,PressureIn,WindDirection,WindDirectionDegrees,WindSpeedMPH,WindSpeedGustMPH,Humidity,HourlyPrecipIn,Conditions,Clouds,dailyrainin,SoftwareType,DateUTC
2013-03-30 00:00:00,39.7,32.0,30.23,ENE,57,0.0,2.0,75,0.00,,,0.00,weatherlink.com 1.10,2013-03-30 05:00:00,
2013-03-30 00:15:00,38.6,32.0,30.23,ENE,57,0.0,1.0,78,0.00,,,0.00,weatherlink.com 1.10,2013-03-30 05:15:00,
2013-03-30 00:30:00,38.4,33.0,30.23,ENE,57,0.0,2.0,80,0.00,,,0.00,weatherlink.com 1.10,2013-03-30 05:30:00,
2013-03-30 00:45:00,38.7,32.0,30.23,ENE,57,0.0,1.0,78,0.00,,,0.00,weatherlink.com 1.10,2013-03-30 05:45:00,
2013-03-30 01:00:00,38.3,32.0,30.23,ENE,57,0.0,0.0,79,0.00,,,0.00,weatherlink.com 1.10,2013-03-30 06:00:00,
2013-03-30 01:15:00,38.2,32.0,30.23,ENE,57,0.0,0.0,79,0.00,,,0.00,weatherlink.com 1.10,2013-03-30 06:15:00,
2013-03-30 01:30:00,37.7,31.0,30.23,ENE,57,0.0,1.0,78,0.00,,,0.00,weatherlink.com 1.10,2013-03-30 06:30:00,
2013-03-30 01:45:00,36.4,31.0,30.23,ENE,57,0.0,3.0,81,0.00,,,0.00,weatherlink.com 1.10,2013-03-30 06:45:00,
2013-03-30 02:00:00,35.8,31.0,30.22,ENE,57,1.0,2.0,83,0.00,,,0.00,weatherlink.com 1.10,2013-03-30 07:00:00,
2013-03-30 02:15:00,36.5,32.0,30.22,ENE,57,2.0,3.0,84,0.00,,,0.00,weatherlink.com 1.10,2013-03-30 07:15:00,
2013-03-30 02:30:00,37.3,33.0,30.22,ENE,57,1.0,2.0,83,0.00,,,0.00,weatherlink.com 1.10,2013-03-30 07:30:00,
2013-03-30 02:45:00,36.8,32.0,30.21,ENE,57,2.0,2.0,83,0.00,,,0.00,weatherlink.com 1.10,2013-03-30 07:45:00,
2013-03-30 03:00:00,36.8,32.0,30.20,ENE,57,2.0,3.0,82,0.00,,,0.00,weatherlink.com 1.10,2013-03-30 08:00:00,
2013-03-30 03:15:00,36.1,31.0,30.20,ENE,57,2.0,4.0,82,0.00,,,0.00,weatherlink.com 1.10,2013-03-30 08:15:00,
2013-03-30 03:30:00,36.2,32.0,30.20,ENE,57,3.0,4.0,83,0.00,,,0.00,weatherlink.com 1.10,2013-03-30 08:30:00,
2013-03-30 03:45:00,35.6,31.0,30.20,ENE,57,1.0,3.0,83,0.00,,,0.00,weatherlink.com 1.10,2013-03-30 08:45:00,
2013-03-30 04:00:00,34.9,31.0,30.20,ENE,57,1.0,2.0,84,0.00,,,0.00,weatherlink.com 1.10,2013-03-30 09:00:00,
2013-03-30 04:15:00,34.7,30.0,30.20,ENE,57,0.0,3.0,84,0.00,,,0.00,weatherlink.com 1.10,2013-03-30 09:15:00,
2013-03-30 04:30:00,34.6,31.0,30.21,ENE,57,1.0,3.0,85,0.00,,,0.00,weatherlink.com 1.10,2013-03-30 09:30:00,
2013-03-30 04:45:00,34.2,30.0,30.20,ENE,57,1.0,4.0,85,0.00,,,0.00,weatherlink.com 1.10,2013-03-30 09:45:00,
2013-03-30 05:00:00,33.6,30.0,30.20,ENE,57,3.0,5.0,85,0.00,,,0.00,weatherlink.com 1.10,2013-03-30 10:00:00,
2013-03-30 05:15:00,33.9,31.0,30.19,ENE,57,3.0,4.0,87,0.00,,,0.00,weatherlink.com 1.10,2013-03-30 10:15:00,
2013-03-30 05:30:00,34.0,30.0,30.19,ENE,57,2.0,3.0,85,0.00,,,0.00,weatherlink.com 1.10,2013-03-30 10:30:00,
2013-03-30 05:45:00,33.7,30.0,30.18,ENE,57,3.0,4.0,86,0.00,,,0.00,weatherlink.com 1.10,2013-03-30 10:45:00,
2013-03-30 06:00:00,33.2,30.0,30.18,ENE,57,2.0,4.0,86,0.00,,,0.00,weatherlink.com 1.10,2013-03-30 11:00:00,
2013-03-30 06:16:00,33.8,30.0,30.19,ENE,57,4.0,4.0,87,0.00,,,0.00,weatherlink.com 1.10,2013-03-30 11:16:00,
2013-03-30 06:31:00,33.9,30.0,30.18,ENE,57,3.0,3.0,86,0.00,,,0.00,weatherlink.com 1.10,2013-03-30 11:31:00,
2013-03-30 06:46:00,33.9,31.0,30.18,ENE,57,3.0,4.0,87,0.00,,,0.00,weatherlink.com 1.10,2013-03-30 11:46:00,
2013-03-30 07:01:00,34.8,31.0,30.18,ENE,57,3.0,5.0,86,0.00,,,0.00,weatherlink.com 1.10,2013-03-30 12:01:00,
2013-03-30 07:16:00,35.4,31.0,30.19,ENE,57,4.0,4.0,84,0.00,,,0.00,weatherlink.com 1.10,2013-03-30 12:16:00,
2013-03-30 07:31:00,36.0,31.0,30.18,ENE,65,2.0,5.0,83,0.00,,,0.00,weatherlink.com 1.10,2013-03-30 12:31:00,
2013-03-30 07:46:00,36.8,32.0,30.18,ENE,69,4.0,7.0,83,0.00,,,0.00,weatherlink.com 1.10,2013-03-30 12:46:00,
2013-03-30 08:01:00,38.0,33.0,30.17,ENE,70,3.0,5.0,83,0.00,,,0.00,weatherlink.com 1.10,2013-03-30 13:01:00,
2013-03-30 08:46:00,44.0,37.0,30.16,SSE,155,5.0,8.0,77,0.00,,,0.00,weatherlink.com 1.10,2013-03-30 13:46:00,
2013-03-30 09:01:00,45.7,37.0,30.15,South,169,10.0,13.0,71,0.00,,,0.00,weatherlink.com 1.10,2013-03-30 14:01:00,
2013-03-30 09:46:00,49.0,37.0,30.14,SSE,159,12.0,16.0,63,0.00,,,0.00,weatherlink.com 1.10,2013-03-30 14:46:00,
2013-03-30 10:01:00,49.9,38.0,30.14,South,171,8.0,15.0,63,0.00,,,0.00,weatherlink.com 1.10,2013-03-30 15:01:00,
2013-03-30 10:31:00,51.6,38.0,30.13,SSE,156,10.0,16.0,61,0.00,,,0.00,weatherlink.com 1.10,2013-03-30 15:31:00,
2013-03-30 11:01:00,52.4,36.0,30.13,SSE,166,8.0,18.0,55,0.00,,,0.00,weatherlink.com 1.10,2013-03-30 16:01:00,
2013-03-30 11:31:00,52.3,37.0,30.12,SSE,153,13.0,19.0,57,0.00,,,0.00,weatherlink.com 1.10,2013-03-30 16:31:00,
2013-03-30 11:46:00,52.6,38.0,30.12,SSW,197,13.0,20.0,59,0.00,,,0.00,weatherlink.com 1.10,2013-03-30 16:46:00,
2013-03-30 12:01:00,53.1,38.0,30.11,SSE,155,14.0,20.0,57,0.00,,,0.00,weatherlink.com 1.10,2013-03-30 17:01:00,
2013-03-30 12:16:00,53.3,38.0,30.10,SSW,194,7.0,17.0,57,0.00,,,0.00,weatherlink.com 1.10,2013-03-30 17:16:00,
2013-03-30 12:31:00,53.3,38.0,30.09,South,171,9.0,17.0,57,0.00,,,0.00,weatherlink.com 1.10,2013-03-30 17:31:00,
2013-03-30 12:46:00,54.0,38.0,30.07,South,188,10.0,17.0,55,0.00,,,0.00,weatherlink.com 1.10,2013-03-30 17:46:00,
2013-03-30 13:02:00,53.9,39.0,30.07,South,173,13.0,21.0,57,0.00,,,0.00,weatherlink.com 1.10,2013-03-30 18:02:00,
2013-03-30 13:17:00,54.1,39.0,30.07,SSW,198,7.0,17.0,58,0.00,,,0.00,weatherlink.com 1.10,2013-03-30 18:17:00,
2013-03-30 13:32:00,54.1,39.0,30.06,SSE,155,11.0,17.0,56,0.00,,,0.00,weatherlink.com 1.10,2013-03-30 18:32:00,
2013-03-30 13:47:00,54.1,39.0,30.05,SSW,205,10.0,17.0,58,0.00,,,0.00,weatherlink.com 1.10,2013-03-30 18:47:00,
2013-03-30 14:02:00,54.0,39.0,30.04,South,169,15.0,21.0,57,0.00,,,0.00,weatherlink.com 1.10,2013-03-30 19:02:00,
2013-03-30 14:17:00,54.2,39.0,30.03,SSW,206,10.0,17.0,58,0.00,,,0.00,weatherlink.com 1.10,2013-03-30 19:17:00,
2013-03-30 14:32:00,54.4,41.0,30.02,South,180,9.0,20.0,60,0.00,,,0.00,weatherlink.com 1.10,2013-03-30 19:32:00,
2013-03-30 14:47:00,54.4,40.0,30.01,South,183,9.0,22.0,58,0.00,,,0.00,weatherlink.com 1.10,2013-03-30 19:47:00,
2013-03-30 15:02:00,54.2,40.0,30.00,SSW,211,9.0,22.0,60,0.00,,,0.00,weatherlink.com 1.10,2013-03-30 20:02:00,
2013-03-30 15:17:00,53.9,41.0,30.00,South,179,16.0,21.0,61,0.00,,,0.00,weatherlink.com 1.10,2013-03-30 20:17:00,
2013-03-30 15:32:00,53.5,40.0,29.99,South,186,18.0,24.0,60,0.00,,,0.00,weatherlink.com 1.10,2013-03-30 20:32:00,
2013-03-30 15:47:00,53.3,40.0,29.98,South,176,19.0,24.0,60,0.00,,,0.00,weatherlink.com 1.10,2013-03-30 20:47:00,
2013-03-30 16:02:00,53.3,40.0,29.98,South,180,19.0,24.0,62,0.00,,,0.00,weatherlink.com 1.10,2013-03-30 21:02:00,
2013-03-30 16:17:00,53.3,41.0,29.98,SSW,211,15.0,22.0,63,0.00,,,0.00,weatherlink.com 1.10,2013-03-30 21:17:00,
2013-03-30 16:32:00,53.3,42.0,29.99,SSW,195,11.0,19.0,65,0.00,,,0.00,weatherlink.com 1.10,2013-03-30 21:32:00,
2013-03-30 16:47:00,53.2,41.0,29.98,SSW,206,17.0,18.0,63,0.00,,,0.00,weatherlink.com 1.10,2013-03-30 21:47:00,
2013-03-30 17:02:00,53.1,42.0,29.98,SSW,213,12.0,18.0,65,0.00,,,0.00,weatherlink.com 1.10,2013-03-30 22:02:00,
2013-03-30 17:17:00,53.0,41.0,29.97,SSW,213,12.0,17.0,65,0.00,,,0.00,weatherlink.com 1.10,2013-03-30 22:17:00,
2013-03-30 17:32:00,52.7,41.0,29.97,SSW,198,9.0,18.0,65,0.00,,,0.00,weatherlink.com 1.10,2013-03-30 22:32:00,
2013-03-30 17:47:00,52.4,42.0,29.97,SSW,200,8.0,14.0,68,0.00,,,0.00,weatherlink.com 1.10,2013-03-30 22:47:00,
2013-03-30 18:02:00,52.1,43.0,29.96,South,191,8.0,12.0,70,0.00,,,0.00,weatherlink.com 1.10,2013-03-30 23:02:00,
2013-03-30 18:17:00,51.8,43.0,29.95,SSW,209,4.0,8.0,72,0.00,,,0.00,weatherlink.com 1.10,2013-03-30 23:17:00,
2013-03-30 18:32:00,51.5,43.0,29.95,SSW,201,5.0,7.0,73,0.00,,,0.00,weatherlink.com 1.10,2013-03-30 23:32:00,
2013-03-30 18:47:00,51.1,43.0,29.94,South,186,6.0,9.0,74,0.00,,,0.00,weatherlink.com 1.10,2013-03-30 23:47:00,
2013-03-30 19:02:00,50.7,43.0,29.94,South,182,6.0,8.0,74,0.00,,,0.00,weatherlink.com 1.10,2013-03-31 00:02:00,
2013-03-30 19:17:00,50.2,42.0,29.94,South,187,4.0,8.0,73,0.00,,,0.00,weatherlink.com 1.10,2013-03-31 00:17:00,
2013-03-30 19:32:00,49.8,41.0,29.94,South,188,3.0,9.0,73,0.00,,,0.00,weatherlink.com 1.10,2013-03-31 00:32:00,
2013-03-30 19:47:00,49.3,42.0,29.93,South,188,3.0,6.0,75,0.00,,,0.00,weatherlink.com 1.10,2013-03-31 00:47:00,
2013-03-30 20:02:00,48.8,42.0,29.93,South,182,5.0,7.0,76,0.00,,,0.00,weatherlink.com 1.10,2013-03-31 01:02:00,
2013-03-30 20:17:00,48.6,42.0,29.93,South,180,5.0,8.0,77,0.00,,,0.00,weatherlink.com 1.10,2013-03-31 01:17:00,
2013-03-30 20:32:00,48.5,42.0,29.93,South,186,7.0,9.0,78,0.00,,,0.00,weatherlink.com 1.10,2013-03-31 01:32:00,
2013-03-30 20:47:00,48.0,42.0,29.93,SSW,198,5.0,7.0,80,0.00,,,0.00,weatherlink.com 1.10,2013-03-31 01:47:00,
2013-03-30 21:02:00,47.8,43.0,29.93,South,188,5.0,8.0,82,0.00,,,0.00,weatherlink.com 1.10,2013-03-31 02:02:00,
2013-03-30 21:17:00,47.5,43.0,29.93,South,189,5.0,6.0,83,0.00,,,0.00,weatherlink.com 1.10,2013-03-31 02:17:00,
2013-03-30 21:32:00,47.7,43.0,29.93,South,191,5.0,8.0,83,0.00,,,0.00,weatherlink.com 1.10,2013-03-31 02:32:00,
2013-03-30 21:47:00,47.2,43.0,29.92,SSW,202,3.0,7.0,84,0.00,,,0.00,weatherlink.com 1.10,2013-03-31 02:47:00,
2013-03-30 22:02:00,46.5,43.0,29.92,SSW,202,4.0,4.0,86,0.00,,,0.00,weatherlink.com 1.10,2013-03-31 03:02:00,
2013-03-30 22:17:00,47.0,43.0,29.91,SSW,197,7.0,7.0,85,0.00,,,0.00,weatherlink.com 1.10,2013-03-31 03:17:00,
2013-03-30 22:32:00,47.3,43.0,29.91,South,191,8.0,8.0,84,0.00,,,0.00,weatherlink.com 1.10,2013-03-31 03:32:00,
2013-03-30 22:47:00,46.9,43.0,29.91,SSW,203,2.0,7.0,85,0.00,,,0.00,weatherlink.com 1.10,2013-03-31 03:47:00,
2013-03-30 23:02:00,46.9,43.0,29.91,SW,225,5.0,7.0,86,0.00,,,0.00,weatherlink.com 1.10,2013-03-31 04:02:00,
2013-03-30 23:17:00,47.1,43.0,29.91,SW,236,7.0,9.0,86,0.00,,,0.00,weatherlink.com 1.10,2013-03-31 04:17:00,
2013-03-30 23:32:00,47.2,44.0,29.90,SW,236,8.0,11.0,87,0.00,,,0.00,weatherlink.com 1.10,2013-03-31 04:32:00,